Location: Little Cypress
(30.1590°N, 93.7750°W)
Time: 22:44:43
(UTC-05:00)

Daily predictions for brighter satellites

Satellite Brightness Start Highest point End
(mag) Time Altitude Azimuth Time Altitude Azimuth Time Altitude Azimuth
Meteor 1-19 Rocket 4.3 19:59:02 10° N 20:04:41 89° W 20:10:14 10° S
Cosmos 1821 Rocket 3.9 19:59:47 10° S 20:05:53 75° E 20:11:57 10° N
Meteor 2-21 Rocket 4.5 20:00:01 10° S 20:06:12 77° E 20:12:23 10° N
Cosmos 1633 4.0 20:05:02 10° SSW 20:08:31 43° W 20:12:00 10° N
Cosmos 1605 Rocket 4.4 20:03:11 10° SSE 20:09:06 43° E 20:14:58 10° NNE
CZ-4B DEB 4.0 20:08:13 10° SE 20:10:55 24° ENE 20:13:38 10° NNE
Cosmos 2219 4.0 20:08:05 10° NNW 20:13:33 54° WSW 20:19:00 10° S
Spot 2 Rocket 3.5 20:08:39 10° SSE 20:13:42 71° ENE 20:18:46 10° N
Cosmos 1697 Rocket 3.3 20:09:57 10° SSE 20:14:55 32° ESE 20:19:52 10° NE
Cosmos 2208 Rocket 4.4 20:11:14 10° SSW 20:16:31 73° WNW 20:21:53 10° NNE
Cosmos 1025 Rocket 3.3 20:13:18 10° N 20:17:38 72° W 20:21:54 10° S
METEOR-M 4.1 20:12:31 10° SSE 20:17:50 75° ENE 20:23:10 10° N
Meteor 2-14 Rocket 4.5 20:13:39 10° S 20:19:48 87° E 20:25:59 10° N
Meteor 2-15 4.5 20:15:15 10° N 20:21:13 60° E 20:27:10 10° SSE
BREEZE-M DEB (TANK) 4.1 20:19:05 10° WSW 20:22:09 54° NNW 20:30:46 10° NE
Cosmos 2278 4.3 20:19:14 10° SSW 20:24:49 64° WNW 20:30:29 10° NNE
Cosmos 1455 Rocket 3.0 20:21:55 10° S 20:26:13 89° ESE 20:30:34 10° N
Iridium 4 Rocket 4.5 20:22:49 10° NNE 20:26:28 21° E 20:29:07 13° ESE
Cosmos 1892 Rocket 3.6 20:24:34 10° N 20:29:04 89° ENE 20:33:32 10° S
Meteor 2-4 Rocket 4.3 20:29:39 10° NNW 20:35:30 66° W 20:41:21 10° S
Cosmos 1602 Rocket 4.3 20:33:30 10° NNE 20:37:31 33° E 20:40:24 16° SE
H-2A R/B 3.2 20:35:06 13° SE 20:38:14 40° ENE 20:41:56 10° N
Cosmos 1980 Rocket 2.9 20:33:35 10° SSE 20:38:26 30° ESE 20:43:19 10° NE
Resurs 1-3 3.7 20:35:25 10° S 20:39:47 78° WSW 20:44:11 10° NNW
Lacrosse 5 3.8 20:39:46 10° N 20:42:40 15° NE 20:44:53 12° ENE
Cosmos 2123 Rocket 3.9 20:39:26 10° N 20:45:37 79° E 20:51:48 10° S
Cosmos 1975 2.7 20:42:21 10° S 20:46:25 71° E 20:50:31 10° N
ERS-1 Rocket 4.2 20:48:21 21° E 20:49:39 23° ENE 20:53:33 10° NNE
EO 1 Delta rocket 4.2 20:46:34 10° N 20:51:30 89° W 20:57:30 10° S
FENGYUN 3A 3.6 20:50:32 10° SSE 20:55:53 83° ENE 21:01:15 10° N
Lacrosse 5 rocket 1.4 20:53:38 10° NNW 20:57:09 44° NE 20:57:58 37° E
Cosmos 1656 4.1 20:52:54 10° SSW 20:58:30 67° WNW 21:04:03 10° NNE
CZ-2D R/B 3.2 20:57:27 15° S 21:00:36 86° WSW 21:04:29 10° NNW
Cosmos 1763 Rocket 4.0 20:56:30 10° SSE 21:01:06 35° E 21:05:41 10° NE
Delta 2 Rocket 4.0 20:55:42 10° WNW 21:01:27 82° SSW 21:03:59 32° ESE
CZ-4B DEB 4.5 21:01:49 25° SSE 21:03:50 89° E 21:07:28 10° N
Fermi 4.2 21:00:16 10° WSW 21:04:09 43° S 21:04:54 38° SSE
Resurs 01 Rocket 3.7 21:00:31 10° SSW 21:04:18 28° W 21:08:07 10° NW
Cosmos 1500 3.0 21:03:55 10° S 21:07:36 83° E 21:11:23 10° N
Hubble Space Telescope 2.5 21:06:27 10° WSW 21:09:34 21° SSW 21:10:37 19° S
DELTA 2 R/B (1) 4.1 21:05:22 10° NW 21:10:44 48° NNE 21:13:06 30° ENE
Cosmos 1898 Rocket 3.8 21:06:11 10° N 21:11:17 47° ENE 21:12:34 39° ESE
Cosmos 2227 Rocket 2.5 21:08:37 10° NNW 21:14:12 64° WSW 21:18:41 16° S
Cosmos 468 Rocket 4.4 21:13:32 10° SSW 21:18:35 63° WNW 21:23:40 10° N
OAO 2 Rocket 4.0 21:16:01 10° WNW 21:20:52 48° N 21:22:50 32° NE
ALOS 3.4 21:19:14 10° S 21:23:38 42° W 21:28:04 10° NNW
Cosmos 1939 Rocket 3.9 21:25:01 35° NE 21:25:01 35° NE 21:27:57 10° N
USA 186 3.0 21:23:38 33° SW 21:24:17 38° W 21:27:06 10° NNW
Cosmos 841 Rocket 3.5 21:23:26 46° SE 21:24:28 54° ESE 21:29:33 10° NNE
Cosmos 1447 Rocket 4.5 21:18:19 10° N 21:24:40 87° W 21:29:33 18° S
Cosmos 2360 4.2 21:20:29 10° S 21:26:04 59° ESE 21:31:42 10° NNE
Cosmos 1802 Rocket 4.0 21:21:57 21° SSE 21:26:14 63° E 21:32:34 10° NNE
Cosmos 2297 Rocket 2.4 21:23:41 10° NNW 21:29:18 68° WSW 21:32:07 30° S
Cosmos 2082 4.5 21:24:42 10° NNW 21:30:04 48° WSW 21:33:58 18° S
OTV 4 2.2 21:28:16 10° WNW 21:30:01 32° WNW 21:30:01 32° WNW
Cosmos 2016 Rocket 3.9 21:34:59 49° SE 21:36:24 62° E 21:42:29 10° NNE
Cosmos 1515 4.3 21:33:37 10° NNW 21:37:21 52° W 21:37:39 51° WSW
Cosmos 1743 3.7 21:48:12 46° NW 21:48:12 46° NW 21:51:19 10° N
Cosmos 1825 Rocket 4.5 21:43:58 10° N 21:46:51 39° N 21:46:51 39° N
Cosmos 2173 Rocket 4.2 21:42:14 10° SSW 21:48:34 72° W 21:54:55 10° N
Tiangong 1 4.3 21:50:30 10° NNW 21:50:47 11° NNW 21:50:47 11° NNW
H-2A R/B 3.8 21:57:54 23° N 21:57:54 23° N 21:59:34 10° N
RESURS DK-1 3.7 21:53:08 10° NNW 21:55:34 34° NNW 21:55:34 34° NNW
Envisat 3.2 22:03:38 66° NW 22:03:38 66° NW 22:08:05 10° NNW
SL-16 R/B 4.2 22:13:10 18° NNE 22:13:10 18° NNE 22:14:30 10° NNE
Cosmos 1937 Rocket 4.1 22:07:39 10° NNW 22:12:16 55° WNW 22:12:16 55° WNW
Cosmos 1980 Rocket 4.1 22:17:31 10° WSW 22:22:19 28° WNW 22:27:09 10° N
Lacrosse 5 3.2 22:21:03 10° NW 22:24:05 37° NW 22:24:05 37° NW
SPOT 5 4.4 22:28:37 33° NNW 22:28:37 33° NNW 22:31:15 10° NNW
CZ-3C R/B 3.7 22:19:38 10° W 22:38:25 33° SW 22:38:31 33° SW
Cosmos 2263 Rocket 4.4 22:49:31 10° N 22:50:51 17° N 22:50:51 17° N
Cosmos 2322 Rocket 4.2 22:58:39 22° NNW 22:58:39 22° NNW 23:00:55 10° N
Milstar 3 Cent rocket 4.1 22:54:51 10° W 23:10:48 60° SW 23:10:48 60° SW
